Terminal Aerodrome Forecast
Issued by NWS Wakefield, VA

Home | Current Version | Previous Version | Text Only | Print | Product List | Glossary On
Versions: 1 2 3 4 5 6 7 8 9 10 11 12 13 14 15 16 17
000
FTUS41 KAKQ 231700
TAFORF
TAF
KORF 231737Z 2318/2418 31014G21KT P6SM BKN040
     FM232200 31011G16KT P6SM SCT040
     FM241400 34013G18KT P6SM FEW040 SCT200=

USA.gov is the U.S. government's official web portal to all federal, state and local government web resources and services.